Terminal Aerodrome Forecast
Issued by NWS

Home | Current Version | Previous Version | Text Only | Print | Product List | Glossary On
Versions: 1 2 3 4 5 6 7 8 9 10 11 12 13 14
000
FTUS44 KBMX 302339
TAFTOI
TAF
KTOI 302339Z 3100/3124 VRB04KT P6SM SCT060
     FM310030 36012G20KT 4SM SHRA BR VCTS BKN040CB
     FM310300 00000KT P6SM BKN150
     FM310800 00000KT 4SM BR BKN250
     FM311400 27002KT P6SM FEW050 SCT250
     FM311700 26006KT P6SM VCTS BKN050CB=

USA.gov is the U.S. government's official web portal to all federal, state and local government web resources and services.